Location: Arcones
(41.1182°N, 3.7238°W)
Time: 19:56:58
(UTC+00:00)

Cosmos 1980 Rocket - Pass Details

Date: 11 December 2025
Orbit: 830 x 847 km, 71.0° (Epoch: 12 January)

Event Time Altitude Azimuth Distance (km) Brightness Sun altitude
Rises 19:52:28 0° 248° (WSW) 3,391 6.3 -34.2°
Reaches altitude 10° 19:55:40 10° 266° (W) 2,457 5.4 -34.8°
Maximum altitude 19:59:32 19° 310° (NW) 1,916 4.4 -35.5°
Enters shadow 20:01:20 16° 333° (NNW) 2,044 4.4 -35.8°
